Location: Meadowbank Aerodrome
(65.0250°N, 96.0705°W)
Time: 08:32:13
(UTC-06:00)

Cosmos 2221 - Visible Passes

Search period start: 05 March 2015 00:00
Search period end: 15 March 2015 01:00
Orbit: 597 x 619 km, 82.5° (Epoch: 04 March)

Date Brightness Start Highest point End Pass type
(mag) Time Alt. Az. Time Alt. Az. Time Alt. Az.
05 Mar 4.8 01:19:44 19° NW 01:19:56 19° NW 01:23:08 10° N visible
05 Mar 5.2 06:16:21 10° N 06:19:01 16° NE 06:21:45 10° ENE visible
05 Mar 4.9 20:42:38 11° NE 20:42:38 11° NE 20:42:54 10° NE visible
05 Mar 4.0 22:19:32 29° NE 22:19:32 29° NE 22:21:56 10° NNE visible
05 Mar 4.0 23:56:27 37° NNW 23:56:27 37° NNW 23:59:41 10° NNE visible
06 Mar 5.0 01:33:21 15° NW 01:34:16 16° NW 01:37:01 10° N visible
06 Mar 4.6 20:56:14 14° NE 20:56:14 14° NE 20:57:30 10° NE visible
06 Mar 3.6 22:33:08 38° NNE 22:33:08 38° NNE 22:35:58 10° NNE visible
07 Mar 4.1 00:10:02 32° NW 00:10:02 32° NW 00:13:37 10° N visible
07 Mar 5.2 01:46:56 11° NW 01:48:39 13° NNW 01:50:50 10° N visible
07 Mar 5.5 05:07:20 10° N 05:08:17 11° NNE 05:09:18 10° NE visible
07 Mar 4.3 21:09:47 19° ENE 21:09:47 19° ENE 21:11:50 10° NNE visible
07 Mar 3.3 22:46:41 50° NNE 22:46:41 50° NNE 22:49:59 10° NNE visible
08 Mar 4.4 00:23:35 26° NW 00:23:48 26° NW 00:27:33 10° N visible
08 Mar 5.4 03:01:28 10° NW 03:03:03 12° NNW 03:04:34 10° N visible
08 Mar 5.4 06:20:56 10° N 06:22:43 12° NNE 06:24:33 10° NE visible
08 Mar 3.8 22:23:19 26° ENE 22:23:19 26° ENE 22:26:01 10° NNE visible
09 Mar 3.1 00:00:13 57° NNW 00:00:13 57° NNW 00:03:59 10° NNE visible
09 Mar 4.7 01:37:07 20° WNW 01:38:03 21° NW 01:41:27 10° N visible
09 Mar 5.6 03:17:00 10° NNW 03:17:29 10° NNW 03:17:54 10° NNW visible
09 Mar 5.3 06:34:43 10° N 06:37:07 14° NNE 06:39:32 10° ENE visible
09 Mar 4.7 20:59:55 11° ENE 20:59:55 11° ENE 21:00:33 10° ENE visible
09 Mar 3.3 22:36:48 37° ENE 22:36:48 37° ENE 22:40:08 10° NNE visible
10 Mar 3.3 00:13:42 49° WNW 00:13:42 49° WNW 00:17:57 10° NNE visible
10 Mar 5.0 01:50:36 14° WNW 01:52:22 17° NW 01:55:19 10° N visible
10 Mar 5.3 06:48:33 10° N 06:51:27 17° NE 06:54:23 10° E visible
10 Mar 4.4 21:13:21 15° ENE 21:13:21 15° ENE 21:15:30 10° NE visible
10 Mar 2.7 22:50:15 54° ENE 22:50:15 54° ENE 22:54:11 10° NNE visible
11 Mar 3.8 00:27:09 36° WNW 00:27:45 38° WNW 00:31:54 10° N visible
11 Mar 5.3 02:04:10 10° WNW 02:06:42 15° NNW 02:09:10 10° N visible
11 Mar 5.1 07:02:26 10° N 07:05:45 21° NE 07:09:06 10° E visible
11 Mar 4.0 21:26:45 20° E 21:26:45 20° E 21:29:55 10° NE visible
11 Mar 2.4 23:03:39 77° SE 23:03:47 78° ESE 23:08:13 10° NNE visible
12 Mar 4.3 00:40:32 25° W 00:41:56 29° NW 00:45:49 10° N visible
12 Mar 5.4 02:19:09 10° NW 02:21:04 12° NNW 02:22:56 10° N visible
12 Mar 5.6 05:39:22 10° N 05:40:44 11° NNE 05:42:09 10° NE visible
12 Mar 3.6 21:40:05 26° E 21:40:27 26° E 21:44:09 10° NNE visible
12 Mar 2.6 23:16:59 59° SW 23:17:45 78° WNW 23:22:12 10° NNE visible
13 Mar 4.7 00:53:52 16° W 00:56:08 23° NW 00:59:42 10° N visible
13 Mar 5.6 02:34:21 10° NW 02:35:28 11° NNW 02:36:33 10° N visible
13 Mar 5.5 05:53:03 10° N 05:55:07 13° NNE 05:57:15 10° ENE visible
13 Mar 3.2 21:53:20 32° ESE 21:54:15 35° E 21:58:17 10° NNE visible
13 Mar 3.1 23:30:13 36° SW 23:31:48 58° WNW 23:36:10 10° NNE visible
14 Mar 5.0 01:07:10 10° W 01:10:25 19° NW 01:13:35 10° N visible
14 Mar 5.4 06:06:51 10° N 06:09:28 15° NE 06:12:08 10° ENE visible
14 Mar 4.4 20:29:38 10° E 20:31:21 13° ENE 20:33:19 10° NE visible
14 Mar 2.8 22:06:30 32° SSE 22:08:05 48° E 22:12:22 10° NNE visible
14 Mar 3.6 23:43:22 22° WSW 23:45:52 43° WNW 23:50:07 10° NNE visible
